sat.trackr.live / text

‹ back to catalog

STARLINK-32811

NORAD 63039 · 2025-034L

PAYLOAD ACTIVE UNKNOWN

§ Identity

Operator
Country
US
Launch date
2025-02-18
Launch site
AFETR
Launch vehicle
Mass (kg)
RCS (m²)

Purposes: comms

External: N2YO · Heavens-Above · Gunter

§ Orbital elements

Epoch: 2026-09-21T18:26:34.143936Z

Period
93.85 min
Inclination
53.1593°
Eccentricity
0.0000953
Mean motion
15.34401609 rev/d
Perigee alt
462.0 km
Apogee alt
463.4 km
Semi-major
6,840.8 km
B*
4.1567e-4
RAAN
64.0749°
Arg perigee
100.3921°
Mean anomaly
259.7190°
Rev number
8,915

§ Raw data

STARLINK-328111 63039U 25034L   26264.76845074  .00013694  00000+0  41567-3 0  99942 63039  53.1593  64.0749 0000953 100.3921 259.7190 15.34401609 89151

JSON: /api/v1/satellites/63039 · /tle

For live sub-satellite position, see the globe view (requires WebGL).

§ Visibility from observer

Set your observer location to see the next 7 days of passes ≥ 10°. The values pass through the URL so the page stays shareable.

No JS? Fill the form by hand. The geolocation button needs JavaScript.